Sylvania, OH

10:04 PM EST on February 20, 2017 (GMT -0500)
Lambertville

Weather History for KDUH - December, 2013

Change the Weather History Date:

Tuesday, December 24, 2013

  Actual Average (KTOL) Record (KTOL)
Temperature  
Mean Temperature 19 °F -  
Max Temperature 24 °F 31 °F 65 °F (1889)
Min Temperature 14 °F 16 °F -15 °F (1983)
Degree Days  
Heating Degree Days 46    
Moisture  
Dew Point 10 °F    
Average Humidity 68    
Maximum Humidity 79    
Minimum Humidity 50    
Precipitation  
Precipitation 0.00 in - - ()
Sea Level Pressure  
Sea Level Pressure 30.42 in    
Wind  
Wind Speed 9 mph (West)    
Max Wind Speed 15 mph    
Max Gust Speed 20 mph    
Visibility 10 miles    
Events Snow    
Averages and records for this station are not official NWS values.
T = Trace of Precipitation, MM = Missing Value Source: NWS Daily Summary

Daily Weather History Graph

Daily Weather History Graph

Search for Another Location

Airport or City:

Trip Planner

Search our weather history database for the weather conditions in past years. The results will help you decide how hot, cold, wet, or windy it might be!

Date:

Astronomy

Dec. 24, 2013 Rise Set
Actual Time 7:59 AM EST 5:08 PM EST
Civil Twilight 7:28 AM EST 5:40 PM EST
Nautical Twilight 6:53 AM EST 6:15 PM EST
Astronomical Twilight 6:19 AM EST 6:49 PM EST
Moon No Moon Rise 11:48 AM EST (12/24)
Length of Visible Light 10h 12m
Length of Day
9h 09m
Waning Gibbous, 59% of the Moon is Illuminated
Dec 24
Waning Gibbous
Dec 25
Last Quarter
Jan 1
New
Jan 7
First Quarter
Jan 15
Full

Hourly Weather History & Observations

Time (EST) Temp. Windchill Dew Point Humidity Pressure Visibility Wind Dir Wind Speed Gust Speed Precip Events Conditions
12:15 AM 21.2 °F 8.9 °F 12.2 °F 68% 30.32 in 10.0 mi West 12.7 mph 17.3 mph N/A   Scattered Clouds
12:35 AM 21.2 °F 9.5 °F 12.2 °F 68% 30.32 in 10.0 mi West 11.5 mph 16.1 mph N/A   Scattered Clouds
12:55 AM 21.2 °F 10.1 °F 12.2 °F 68% 30.32 in 10.0 mi West 10.4 mph 18.4 mph N/A   Scattered Clouds
1:15 AM 19.4 °F 8.6 °F 12.2 °F 74% 30.32 in 10.0 mi WSW 9.2 mph - N/A   Clear
1:35 AM 19.4 °F 9.5 °F 12.2 °F 74% 30.32 in 10.0 mi West 8.1 mph - N/A   Mostly Cloudy
1:55 AM 19.4 °F 9.5 °F 10.4 °F 68% 30.32 in 10.0 mi WSW 8.1 mph - N/A   Scattered Clouds
2:15 AM 19.4 °F 7.2 °F 10.4 °F 68% 30.32 in 10.0 mi WSW 11.5 mph 16.1 mph N/A   Clear
2:35 AM 17.6 °F 7.3 °F 10.4 °F 73% 30.33 in 10.0 mi West 8.1 mph 17.3 mph N/A   Clear
2:55 AM 17.6 °F 6.4 °F 10.4 °F 73% 30.34 in 10.0 mi WSW 9.2 mph - N/A   Clear
3:15 AM 17.6 °F 5.0 °F 10.4 °F 73% 30.35 in 10.0 mi West 11.5 mph 17.3 mph N/A   Clear
3:35 AM 15.8 °F 3.4 °F 8.6 °F 73% 30.35 in 10.0 mi West 10.4 mph 18.4 mph N/A   Clear
3:55 AM 15.8 °F 4.2 °F 8.6 °F 73% 30.35 in 10.0 mi West 9.2 mph 16.1 mph N/A   Clear
4:15 AM 15.8 °F 4.2 °F 8.6 °F 73% 30.35 in 10.0 mi West 9.2 mph 16.1 mph N/A   Clear
4:35 AM 15.8 °F 3.4 °F 8.6 °F 73% 30.35 in 10.0 mi West 10.4 mph - N/A   Scattered Clouds
4:55 AM 15.8 °F 4.2 °F 8.6 °F 73% 30.35 in 10.0 mi West 9.2 mph 17.3 mph N/A   Overcast
5:15 AM 15.8 °F 3.4 °F 8.6 °F 73% 30.35 in 10.0 mi West 10.4 mph - N/A   Mostly Cloudy
5:35 AM 14.0 °F 2.0 °F 8.6 °F 79% 30.36 in 10.0 mi West 9.2 mph 18.4 mph N/A   Scattered Clouds
5:55 AM 14.0 °F 2.9 °F 8.6 °F 79% 30.37 in 10.0 mi West 8.1 mph - N/A   Clear
6:15 AM 14.0 °F 1.2 °F 8.6 °F 79% 30.37 in 10.0 mi West 10.4 mph - N/A Snow Light Snow
6:35 AM 14.0 °F 2.0 °F 8.6 °F 79% 30.38 in 10.0 mi West 9.2 mph - N/A Snow Light Snow
6:55 AM 14.0 °F 0.5 °F 8.6 °F 79% 30.38 in 10.0 mi West 11.5 mph 17.3 mph N/A Snow Light Snow
7:15 AM 14.0 °F 0.5 °F 6.8 °F 73% 30.39 in 7.0 mi West 11.5 mph 17.3 mph N/A Snow Light Snow
7:35 AM 14.0 °F 1.2 °F 8.6 °F 79% 30.40 in 5.0 mi West 10.4 mph 16.1 mph N/A Snow Light Snow
7:55 AM 14.0 °F 2.0 °F 8.6 °F 79% 30.41 in 7.0 mi West 9.2 mph - N/A Snow Light Snow
8:15 AM 14.0 °F -0.2 °F 6.8 °F 73% 30.42 in 7.0 mi West 12.7 mph 16.1 mph N/A Snow Light Snow
8:35 AM 14.0 °F 0.5 °F 6.8 °F 73% 30.42 in 5.0 mi West 11.5 mph - N/A Snow Light Snow
8:55 AM 14.0 °F 0.5 °F 8.6 °F 79% 30.43 in 10.0 mi West 11.5 mph 17.3 mph N/A Snow Light Snow
9:15 AM 14.0 °F 2.0 °F 8.6 °F 79% 30.44 in 10.0 mi West 9.2 mph 16.1 mph N/A Snow Light Snow
9:35 AM 15.8 °F 3.4 °F 8.6 °F 73% 30.45 in 7.0 mi West 10.4 mph - N/A Snow Light Snow
9:55 AM 15.8 °F 2.1 °F 8.6 °F 73% 30.45 in 10.0 mi West 12.7 mph 19.6 mph N/A Snow Light Snow
10:15 AM 17.6 °F 3.7 °F 10.4 °F 73% 30.46 in 5.0 mi West 13.8 mph - N/A Snow Light Snow
10:35 AM 17.6 °F 3.2 °F 8.6 °F 68% 30.45 in 4.0 mi West 15.0 mph 18.4 mph N/A Snow Light Snow
10:55 AM 17.6 °F 5.0 °F 8.6 °F 68% 30.46 in 10.0 mi West 11.5 mph 17.3 mph N/A   Scattered Clouds
11:15 AM 17.6 °F 6.4 °F 10.4 °F 73% 30.47 in 10.0 mi West 9.2 mph 16.1 mph N/A   Mostly Cloudy
11:35 AM 17.6 °F 6.4 °F 10.4 °F 73% 30.47 in 10.0 mi West 9.2 mph - N/A   Overcast
11:55 AM 19.4 °F 9.5 °F 10.4 °F 68% 30.46 in 10.0 mi WNW 8.1 mph - N/A   Mostly Cloudy
12:15 PM 19.4 °F 9.5 °F 10.4 °F 68% 30.46 in 10.0 mi WNW 8.1 mph - N/A   Mostly Cloudy
12:35 PM 21.2 °F 10.9 °F 10.4 °F 63% 30.46 in 10.0 mi WNW 9.2 mph 16.1 mph N/A   Mostly Cloudy
12:55 PM 21.2 °F 10.9 °F 10.4 °F 63% 30.45 in 10.0 mi WNW 9.2 mph - N/A   Scattered Clouds
1:15 PM 23.0 °F 15.8 °F 10.4 °F 59% 30.45 in 10.0 mi WNW 5.8 mph - N/A   Scattered Clouds
1:35 PM 23.0 °F 13.1 °F 8.6 °F 54% 30.45 in 10.0 mi NW 9.2 mph - N/A   Scattered Clouds
1:55 PM 23.0 °F 13.9 °F 10.4 °F 59% 30.46 in 10.0 mi NW 8.1 mph 16.1 mph N/A   Scattered Clouds
2:15 PM 23.0 °F 14.7 °F 8.6 °F 54% 30.45 in 10.0 mi NW 6.9 mph - N/A   Mostly Cloudy
2:35 PM 24.8 °F 15.3 °F 8.6 °F 50% 30.46 in 10.0 mi NNW 9.2 mph - N/A   Scattered Clouds
2:55 PM 24.8 °F 16.1 °F 10.4 °F 54% 30.46 in 10.0 mi NW 8.1 mph - N/A   Scattered Clouds
3:15 PM 24.8 °F 14.0 °F 10.4 °F 54% 30.47 in 10.0 mi NNW 11.5 mph 16.1 mph N/A   Scattered Clouds
3:35 PM 24.8 °F 16.1 °F 8.6 °F 50% 30.48 in 10.0 mi NW 8.1 mph - N/A   Scattered Clouds
3:55 PM 24.8 °F 16.1 °F 10.4 °F 54% 30.48 in 10.0 mi NW 8.1 mph - N/A   Scattered Clouds
4:15 PM 24.8 °F 16.1 °F 8.6 °F 50% 30.48 in 10.0 mi NW 8.1 mph - N/A   Scattered Clouds
4:35 PM 23.0 °F 15.8 °F 10.4 °F 59% 30.50 in 10.0 mi NNW 5.8 mph - N/A   Scattered Clouds
4:55 PM 23.0 °F 17.0 °F 10.4 °F 59% 30.50 in 10.0 mi NNW 4.6 mph - N/A   Mostly Cloudy
5:15 PM 23.0 °F 18.4 °F 10.4 °F 59% 30.51 in 10.0 mi NNW 3.5 mph - N/A   Mostly Cloudy
5:35 PM 23.0 °F - 10.4 °F 59% 30.52 in 10.0 mi Calm Calm - N/A   Scattered Clouds
5:55 PM 23.0 °F - 10.4 °F 59% 30.51 in 10.0 mi Calm Calm - N/A   Mostly Cloudy
6:15 PM 21.2 °F - 10.4 °F 63% 30.51 in 10.0 mi Calm Calm - N/A   Scattered Clouds
6:35 PM 19.4 °F - 12.2 °F 74% 30.51 in 10.0 mi Calm Calm - N/A   Clear
6:55 PM 19.4 °F 12.8 °F 12.2 °F 74% 30.52 in 10.0 mi WSW 4.6 mph - N/A   Scattered Clouds
7:15 PM 21.2 °F 16.4 °F 12.2 °F 68% 30.52 in 10.0 mi West 3.5 mph - N/A   Scattered Clouds
7:35 PM 19.4 °F 14.3 °F 12.2 °F 74% 30.53 in 10.0 mi WSW 3.5 mph - N/A   Clear
7:51 PM 19.4 °F - 12.2 °F 74% 30.53 in 10.0 mi Calm Calm - N/A   Clear